QPF
0.05 0.06 0.05 0.06 0.05 0.03 0.02 0.02 0.03 0.02 0.02 0.04 0.05 0.05 0.05 0.05 0.06 0.08 0.05 0.07 0.09 0.10 0.16 0.21 0.22 0.21 0.17 0.16 0.15 0.12 0.11 0.11 0.09 0.08 0.08 0.07 0.05 0.06 0.07 0.06 0.04 0.03 0.04 0.04 0.04 0.03 0.03 0.02 0.01
0.06 0.09 0.05 0.04 0.06 0.04 0.03 0.02 0.03 0.04 0.03 0.02 0.04 0.05 0.04 0.03 0.02 0.04 0.07 0.07 0.07 0.07 0.12 0.16 0.21 0.19 0.15 0.14 0.11 0.10 0.10 0.10 0.10 0.08 0.07 0.06 0.06 0.07 0.08 0.07 0.05 0.04 0.05 0.03 0.02 0.02 0.02 0.02 0.01
0.02 0.04 0.02 0.02 0.04 0.04 0.03 0.02 0.04 0.04 0.05 0.03 0.02 0.04 0.04 0.04 0.03 0.04 0.06 0.05 0.06 0.06 0.07 0.11 0.16 0.15 0.16 0.14 0.10 0.09 0.07 0.08 0.09 0.08 0.07 0.07 0.08 0.08 0.09 0.06 0.05 0.05 0.04 0.03 0.02 0.02 0.02 0.02 0.01
0.00 0.01 0.01 0.03 0.03 0.02 0.02 0.03 0.06 0.04 0.05 0.03 0.03 0.03 0.03 0.05 0.07 0.08 0.04 0.03 0.03 0.04 0.07 0.11 0.14 0.14 0.12 0.09 0.07 0.06 0.06 0.07 0.09 0.08 0.06 0.07 0.06 0.07 0.06 0.04 0.03 0.03 0.03 0.04 0.03 0.02 0.02 0.02 0.02
0.00 0.01 0.01 0.02 0.03 0.02 0.03 0.04 0.07 0.05 0.05 0.04 0.03 0.03 0.04 0.06 0.08 0.10 0.04 0.03 0.02 0.03 0.06 0.10 0.11 0.10 0.08 0.08 0.09 0.09 0.09 0.08 0.07 0.06 0.06 0.05 0.05 0.04 0.03 0.02 0.02 0.02 0.03 0.03 0.03 0.02 0.02 0.02 0.02
0.01 0.01 0.02 0.02 0.02 0.02 0.03 0.04 0.08 0.05 0.04 0.04 0.03 0.06 0.08 0.09 0.12 0.11 0.07 0.05 0.04 0.03 0.05 0.07 0.06 0.06 0.05 0.07 0.18 0.20 0.09 0.04 0.04 0.03 0.03 0.03 0.03 0.02 0.02 0.03 0.02 0.03 0.03 0.02 0.02 0.02 0.02 0.01 0.01
0.01 0.01 0.02 0.01 0.02 0.02 0.02 0.03 0.08 0.06 0.06 0.05 0.03 0.05 0.09 0.13 0.18 0.14 0.07 0.05 0.04 0.04 0.05 0.05 0.04 0.04 0.03 0.03 0.05 0.08 0.05 0.06 0.04 0.02 0.02 0.01 0.01 0.01 0.01 0.01 0.02 0.03 0.03 0.02 0.01 0.02 0.02 0.02 0.01
0.00 0.01 0.02 0.02 0.02 0.02 0.02 0.03 0.05 0.10 0.08 0.04 0.03 0.04 0.09 0.12 0.13 0.12 0.05 0.03 0.04 0.04 0.04 0.03 0.03 0.03 0.02 0.02 0.01 0.02 0.03 0.04 0.03 0.02 0.02 0.01 0.01 0.01 0.01 0.02 0.02 0.02 0.02 0.01 0.01 0.01 0.02 0.01 0.01
0.00 0.02 0.03 0.03 0.03 0.03 0.02 0.03 0.06 0.11 0.07 0.03 0.03 0.04 0.05 0.06 0.06 0.07 0.03 0.03 0.03 0.04 0.04 0.03 0.01 0.01 0.01 0.01 0.00 0.00 0.01 0.01 0.01 0.01 0.01 0.01 0.00 0.00 0.01 0.02 0.02 0.01 0.02 0.02 0.02 0.02 0.01 0.01 0.01
0.00 0.02 0.03 0.03 0.03 0.03 0.03 0.03 0.07 0.10 0.07 0.04 0.02 0.02 0.04 0.04 0.04 0.03 0.03 0.03 0.02 0.02 0.03 0.03 0.01 0.00 0.01 0.01 0.00 0.00 0.00 0.00 0.00 0.00 0.00 0.00 0.00 0.00 0.00 0.01 0.01 0.01 0.01 0.01 0.01 0.01 0.00 0.00 0.00
0.00 0.01 0.02 0.02 0.02 0.02 0.03 0.03 0.05 0.10 0.07 0.05 0.04 0.04 0.06 0.04 0.02 0.01 0.02 0.03 0.03 0.04 0.03 0.02 0.02 0.01 0.01 0.01 0.01 0.00 0.00 0.00 0.00 0.00 0.00 0.00 0.00 0.00 0.00 0.00 0.00 0.00 0.00 0.00 0.00 0.00 0.00 0.00 0.00
0.01 0.01 0.01 0.02 0.02 0.03 0.05 0.04 0.05 0.09 0.07 0.05 0.05 0.04 0.05 0.04 0.02 0.01 0.02 0.03 0.03 0.04 0.05 0.03 0.02 0.02 0.01 0.01 0.01 0.00 0.00 0.00 0.00 0.00 0.00 0.00 0.00 0.00 0.00 0.00 0.00 0.00 0.00 0.00 0.01 0.01 0.00 0.00 0.00
0.01 0.02 0.01 0.01 0.02 0.03 0.05 0.05 0.05 0.09 0.07 0.05 0.05 0.03 0.04 0.02 0.02 0.01 0.01 0.02 0.04 0.04 0.04 0.04 0.02 0.01 0.01 0.01 0.01 0.00 0.00 0.00 0.00 0.00 0.00 0.00 0.00 0.00 0.00 0.00 0.00 0.00 0.00 0.00 0.00 0.00 0.00 0.00 0.00
0.02 0.01 0.02 0.02 0.03 0.02 0.06 0.05 0.06 0.11 0.09 0.07 0.05 0.04 0.03 0.02 0.01 0.00 0.00 0.01 0.01 0.04 0.04 0.03 0.01 0.01 0.01 0.01 0.01 0.00 0.00 0.00 0.00 0.00 0.00 0.00 0.00 0.00 0.00 0.00 0.00 0.00 0.00 0.00 0.00 0.00 0.00 0.01 0.01
0.02 0.03 0.02 0.02 0.02 0.03 0.07 0.06 0.08 0.14 0.14 0.09 0.07 0.05 0.03 0.02 0.01 0.01 0.01 0.01 0.01 0.01 0.01 0.01 0.00 0.00 0.01 0.01 0.01 0.00 0.00 0.00 0.00 0.00 0.00 0.00 0.00 0.00 0.00 0.00 0.00 0.00 0.00 0.00 0.00 0.01 0.01 0.01 0.01
0.03 0.04 0.03 0.02 0.03 0.03 0.05 0.07 0.10 0.14 0.17 0.13 0.06 0.05 0.04 0.03 0.02 0.02 0.01 0.01 0.01 0.01 0.00 0.00 0.00 0.00 0.00 0.00 0.01 0.01 0.00 0.00 0.00 0.00 0.00 0.00 0.00 0.00 0.00 0.00 0.00 0.00 0.00 0.00 0.01 0.01 0.01 0.01 0.01
0.03 0.02 0.03 0.03 0.02 0.03 0.05 0.06 0.11 0.15 0.18 0.14 0.07 0.04 0.05 0.04 0.04 0.04 0.02 0.01 0.01 0.01 0.00 0.00 0.00 0.00 0.00 0.00 0.01 0.01 0.00 0.00 0.00 0.00 0.00 0.00 0.00 0.00 0.00 0.00 0.00 0.00 0.00 0.01 0.00 0.01 0.01 0.02 0.02
0.03 0.03 0.02 0.03 0.03 0.03 0.05 0.06 0.09 0.13 0.15 0.13 0.08 0.04 0.05 0.06 0.05 0.04 0.03 0.02 0.02 0.03 0.01 0.00 0.00 0.00 0.00 0.00 0.00 0.01 0.01 0.00 0.00 0.00 0.00 0.00 0.00 0.00 0.00 0.00 0.00 0.00 0.00 0.01 0.00 0.01 0.01 0.01 0.02
0.02 0.02 0.02 0.04 0.04 0.04 0.05 0.06 0.08 0.12 0.13 0.11 0.08 0.05 0.05 0.07 0.06 0.04 0.03 0.02 0.02 0.02 0.01 0.00 0.00 0.00 0.00 0.00 0.00 0.00 0.00 0.00 0.00 0.00 0.00 0.00 0.00 0.00 0.00 0.00 0.00 0.00 0.00 0.00 0.00 0.00 0.00 0.00 0.01
0.01 0.01 0.03 0.05 0.04 0.04 0.05 0.07 0.08 0.12 0.13 0.10 0.08 0.06 0.04 0.05 0.06 0.05 0.03 0.01 0.01 0.01 0.02 0.00 0.00 0.00 0.00 0.00 0.00 0.00 0.00 0.00 0.00 0.00 0.00 0.00 0.00 0.00 0.00 0.00 0.00 0.00 0.00 0.00 0.00 0.00 0.00 0.00 0.00
0.01 0.01 0.02 0.04 0.05 0.04 0.04 0.07 0.09 0.12 0.13 0.11 0.09 0.06 0.05 0.04 0.04 0.04 0.02 0.01 0.01 0.01 0.01 0.00 0.00 0.00 0.00 0.00 0.00 0.00 0.00 0.00 0.00 0.00 0.00 0.00 0.00 0.00 0.00 0.00 0.00 0.00 0.00 0.00 0.00 0.00 0.00 0.00 0.00
0.01 0.01 0.01 0.02 0.03 0.04 0.03 0.06 0.07 0.08 0.11 0.11 0.09 0.06 0.04 0.03 0.03 0.03 0.02 0.01 0.01 0.01 0.01 0.00 0.00 0.00 0.00 0.00 0.00 0.00 0.00 0.00 0.00 0.00 0.00 0.00 0.00 0.00 0.00 0.00 0.00 0.00 0.00 0.00 0.00 0.00 0.00 0.01 0.01
0.01 0.01 0.01 0.02 0.02 0.02 0.02 0.04 0.05 0.05 0.09 0.08 0.07 0.06 0.05 0.04 0.03 0.02 0.02 0.02 0.01 0.01 0.01 0.01 0.00 0.00 0.00 0.00 0.00 0.00 0.00 0.00 0.00 0.00 0.00 0.00 0.00 0.00 0.00 0.00 0.00 0.00 0.00 0.00 0.00 0.00 0.01 0.01 0.01
0.02 0.01 0.01 0.02 0.02 0.02 0.02 0.03 0.04 0.04 0.08 0.08 0.06 0.07 0.08 0.06 0.03 0.03 0.02 0.02 0.02 0.01 0.01 0.01 0.00 0.00 0.00 0.00 0.00 0.00 0.00 0.00 0.00 0.00 0.00 0.00 0.00 0.00 0.00 0.00 0.00 0.00 0.00 0.00 0.00 0.00 0.01 0.00 0.01
0.02 0.03 0.03 0.03 0.02 0.02 0.01 0.02 0.02 0.03 0.04 0.07 0.06 0.06 0.07 0.06 0.04 0.03 0.02 0.02 0.02 0.01 0.01 0.00 0.00 0.00 0.00 0.00 0.00 0.00 0.00 0.00 0.00 0.00 0.00 0.00 0.00 0.00 0.00 0.00 0.00 0.00 0.00 0.00 0.00 0.00 0.00 0.00 0.01
0.02 0.02 0.02 0.01 0.01 0.02 0.01 0.02 0.02 0.02 0.02 0.04 0.04 0.05 0.06 0.05 0.04 0.03 0.02 0.01 0.01 0.01 0.00 0.00 0.00 0.00 0.01 0.01 0.00 0.01 0.01 0.01 0.01 0.01 0.00 0.00 0.00 0.00 0.00 0.00 0.00 0.00 0.00 0.00 0.00 0.00 0.00 0.00 0.00
0.02 0.01 0.01 0.01 0.00 0.01 0.01 0.01 0.01 0.01 0.01 0.02 0.02 0.02 0.03 0.03 0.03 0.03 0.02 0.01 0.00 0.00 0.00 0.01 0.00 0.00 0.00 0.01 0.01 0.01 0.01 0.01 0.01 0.01 0.01 0.01 0.00 0.00 0.00 0.00 0.00 0.00 0.00 0.00 0.00 0.00 0.00 0.00 0.00
0.01 0.02 0.01 0.02 0.01 0.01 0.01 0.01 0.01 0.01 0.01 0.01 0.01 0.01 0.01 0.02 0.02 0.02 0.02 0.01 0.00 0.00 0.00 0.01 0.01 0.00 0.00 0.00 0.01 0.01 0.01 0.02 0.02 0.02 0.02 0.01 0.01 0.00 0.00 0.00 0.00 0.00 0.00 0.00 0.00 0.00 0.00 0.00 0.00
0.01 0.01 0.02 0.02 0.01 0.01 0.01 0.01 0.00 0.00 0.00 0.00 0.00 0.00 0.00 0.01 0.01 0.01 0.01 0.01 0.00 0.00 0.00 0.01 0.01 0.00 0.00 0.00 0.01 0.02 0.02 0.02 0.01 0.01 0.02 0.01 0.01 0.00 0.00 0.00 0.00 0.00 0.00 0.00 0.00 0.00 0.00 0.00 0.01
0.00 0.01 0.01 0.02 0.01 0.01 0.01 0.01 0.00 0.00 0.00 0.00 0.00 0.00 0.00 0.00 0.00 0.01 0.01 0.01 0.01 0.00 0.00 0.00 0.00 0.00 0.00 0.00 0.01 0.01 0.02 0.02 0.02 0.02 0.01 0.01 0.00 0.00 0.00 0.00 0.00 0.00 0.00 0.00 0.00 0.00 0.00 0.00 0.00
MSLP
1010.58 1011.01 1011.64 1012.39 1013.16 1013.88 1014.51 1015.04 1015.50 1015.90 1016.31 1016.73 1017.15 1017.54 1017.84 1018.00 1017.98 1017.78 1017.42 1016.98 1016.53 1016.15 1015.88 1015.77 1015.80 1015.94 1016.12 1016.30 1016.43 1016.50 1016.50 1016.46 1016.41 1016.38 1016.38 1016.43 1016.50 1016.57 1016.62 1016.63 1016.59 1016.52 1016.42 1016.33 1016.26 1016.22 1016.20 1016.19 1016.16
1010.76 1011.31 1012.02 1012.80 1013.55 1014.21 1014.75 1015.19 1015.56 1015.93 1016.33 1016.79 1017.28 1017.75 1018.14 1018.37 1018.41 1018.23 1017.88 1017.42 1016.94 1016.52 1016.24 1016.11 1016.15 1016.30 1016.50 1016.70 1016.85 1016.92 1016.93 1016.88 1016.83 1016.78 1016.78 1016.80 1016.86 1016.90 1016.93 1016.91 1016.85 1016.76 1016.66 1016.57 1016.51 1016.49 1016.49 1016.49 1016.46
1011.06 1011.72 1012.49 1013.26 1013.96 1014.53 1014.96 1015.30 1015.60 1015.92 1016.33 1016.82 1017.38 1017.93 1018.40 1018.70 1018.79 1018.64 1018.29 1017.82 1017.32 1016.89 1016.59 1016.46 1016.49 1016.65 1016.86 1017.06 1017.22 1017.29 1017.30 1017.25 1017.19 1017.14 1017.13 1017.14 1017.17 1017.20 1017.20 1017.15 1017.07 1016.96 1016.86 1016.77 1016.73 1016.73 1016.75 1016.76 1016.74
1011.46 1012.20 1012.98 1013.72 1014.34 1014.80 1015.13 1015.36 1015.59 1015.88 1016.28 1016.81 1017.43 1018.05 1018.58 1018.94 1019.07 1018.94 1018.61 1018.15 1017.65 1017.22 1016.92 1016.79 1016.83 1016.98 1017.19 1017.39 1017.53 1017.60 1017.60 1017.54 1017.48 1017.43 1017.41 1017.42 1017.44 1017.44 1017.42 1017.35 1017.25 1017.13 1017.02 1016.95 1016.92 1016.93 1016.97 1016.99 1016.97
1011.91 1012.70 1013.47 1014.15 1014.67 1015.01 1015.22 1015.37 1015.53 1015.79 1016.20 1016.76 1017.41 1018.08 1018.66 1019.07 1019.22 1019.13 1018.82 1018.39 1017.91 1017.50 1017.23 1017.11 1017.15 1017.30 1017.49 1017.67 1017.79 1017.84 1017.82 1017.75 1017.68 1017.63 1017.61 1017.62 1017.63 1017.63 1017.59 1017.51 1017.39 1017.26 1017.15 1017.08 1017.05 1017.07 1017.11 1017.14 1017.12
1012.39 1013.18 1013.91 1014.50 1014.91 1015.14 1015.25 1015.32 1015.43 1015.68 1016.09 1016.67 1017.35 1018.05 1018.65 1019.08 1019.26 1019.19 1018.92 1018.53 1018.10 1017.74 1017.50 1017.40 1017.45 1017.59 1017.76 1017.91 1018.00 1018.01 1017.97 1017.89 1017.81 1017.75 1017.73 1017.74 1017.75 1017.74 1017.70 1017.61 1017.48 1017.34 1017.23 1017.15 1017.12 1017.13 1017.17 1017.18 1017.15
1012.86 1013.62 1014.27 1014.77 1015.07 1015.20 1015.24 1015.25 1015.34 1015.58 1016.01 1016.59 1017.28 1017.98 1018.58 1019.01 1019.21 1019.17 1018.94 1018.60 1018.23 1017.93 1017.73 1017.67 1017.73 1017.86 1018.00 1018.12 1018.17 1018.15 1018.07 1017.97 1017.88 1017.82 1017.80 1017.80 1017.81 1017.80 1017.74 1017.64 1017.51 1017.37 1017.24 1017.15 1017.10 1017.10 1017.11 1017.10 1017.04
1013.32 1014.01 1014.58 1014.97 1015.18 1015.24 1015.22 1015.22 1015.30 1015.55 1015.99 1016.57 1017.25 1017.93 1018.52 1018.93 1019.12 1019.10 1018.91 1018.63 1018.33 1018.08 1017.94 1017.91 1017.98 1018.10 1018.23 1018.30 1018.32 1018.26 1018.16 1018.04 1017.93 1017.86 1017.83 1017.82 1017.82 1017.80 1017.73 1017.62 1017.48 1017.33 1017.18 1017.07 1017.00 1016.97 1016.94 1016.90 1016.81
1013.77 1014.39 1014.87 1015.17 1015.30 1015.31 1015.28 1015.27 1015.38 1015.65 1016.08 1016.66 1017.31 1017.95 1018.49 1018.87 1019.05 1019.03 1018.88 1018.64 1018.40 1018.22 1018.12 1018.13 1018.21 1018.33 1018.43 1018.48 1018.47 1018.39 1018.26 1018.13 1018.00 1017.91 1017.86 1017.83 1017.81 1017.77 1017.68 1017.56 1017.40 1017.24 1017.08 1016.94 1016.84 1016.76 1016.69 1016.61 1016.49
1014.24 1014.79 1015.18 1015.40 1015.48 1015.48 1015.44 1015.47 1015.60 1015.89 1016.33 1016.88 1017.48 1018.06 1018.54 1018.86 1019.01 1018.99 1018.86 1018.66 1018.47 1018.33 1018.28 1018.31 1018.41 1018.53 1018.62 1018.66 1018.64 1018.55 1018.41 1018.26 1018.12 1018.01 1017.93 1017.87 1017.81 1017.73 1017.62 1017.48 1017.30 1017.12 1016.94 1016.78 1016.64 1016.52 1016.40 1016.27 1016.12
1014.75 1015.23 1015.54 1015.71 1015.77 1015.77 1015.76 1015.82 1015.99 1016.29 1016.71 1017.22 1017.76 1018.25 1018.65 1018.91 1019.02 1018.98 1018.86 1018.69 1018.53 1018.44 1018.42 1018.47 1018.58 1018.70 1018.80 1018.85 1018.84 1018.75 1018.62 1018.47 1018.32 1018.18 1018.06 1017.95 1017.85 1017.72 1017.58 1017.41 1017.21 1017.01 1016.81 1016.62 1016.45 1016.29 1016.13 1015.95 1015.76
1015.31 1015.72 1015.99 1016.13 1016.18 1016.19 1016.23 1016.32 1016.51 1016.82 1017.21 1017.65 1018.10 1018.50 1018.81 1019.00 1019.05 1019.00 1018.87 1018.72 1018.60 1018.53 1018.53 1018.61 1018.73 1018.87 1018.99 1019.06 1019.06 1019.01 1018.90 1018.75 1018.59 1018.42 1018.26 1018.11 1017.95 1017.78 1017.59 1017.38 1017.17 1016.94 1016.73 1016.52 1016.31 1016.12 1015.92 1015.70 1015.48
1015.89 1016.26 1016.49 1016.62 1016.69 1016.74 1016.81 1016.94 1017.14 1017.41 1017.75 1018.11 1018.46 1018.76 1018.97 1019.08 1019.09 1019.02 1018.90 1018.76 1018.66 1018.61 1018.64 1018.73 1018.87 1019.03 1019.17 1019.28 1019.33 1019.31 1019.23 1019.10 1018.93 1018.74 1018.54 1018.34 1018.13 1017.91 1017.68 1017.44 1017.20 1016.96 1016.72 1016.49 1016.27 1016.04 1015.81 1015.57 1015.32
1016.47 1016.81 1017.03 1017.17 1017.26 1017.35 1017.46 1017.60 1017.79 1018.02 1018.28 1018.54 1018.78 1018.97 1019.09 1019.14 1019.12 1019.03 1018.92 1018.82 1018.74 1018.71 1018.76 1018.86 1019.02 1019.20 1019.38 1019.52 1019.62 1019.64 1019.59 1019.48 1019.32 1019.12 1018.89 1018.64 1018.38 1018.12 1017.85 1017.59 1017.33 1017.07 1016.82 1016.57 1016.33 1016.08 1015.82 1015.56 1015.30
1017.02 1017.33 1017.55 1017.71 1017.85 1017.98 1018.12 1018.26 1018.42 1018.59 1018.75 1018.90 1019.03 1019.12 1019.16 1019.16 1019.12 1019.05 1018.97 1018.89 1018.85 1018.85 1018.91 1019.04 1019.21 1019.41 1019.61 1019.79 1019.92 1019.98 1019.97 1019.88 1019.72 1019.51 1019.26 1018.99 1018.70 1018.41 1018.12 1017.83 1017.56 1017.29 1017.02 1016.76 1016.50 1016.23 1015.96 1015.69 1015.43
1017.48 1017.78 1018.02 1018.22 1018.40 1018.57 1018.73 1018.87 1018.99 1019.08 1019.14 1019.18 1019.20 1019.19 1019.18 1019.15 1019.12 1019.08 1019.04 1019.01 1019.01 1019.05 1019.13 1019.27 1019.45 1019.66 1019.87 1020.07 1020.22 1020.31 1020.33 1020.26 1020.11 1019.90 1019.64 1019.35 1019.05 1018.75 1018.45 1018.16 1017.87 1017.60 1017.32 1017.04 1016.77 1016.48 1016.20 1015.93 1015.67
1017.86 1018.15 1018.41 1018.65 1018.89 1019.10 1019.28 1019.41 1019.48 1019.49 1019.45 1019.38 1019.30 1019.22 1019.17 1019.14 1019.13 1019.14 1019.16 1019.20 1019.25 1019.32 1019.42 1019.56 1019.74 1019.94 1020.16 1020.36 1020.52 1020.62 1020.65 1020.59 1020.45 1020.25 1020.00 1019.71 1019.42 1019.12 1018.82 1018.54 1018.25 1017.97 1017.69 1017.40 1017.11 1016.82 1016.54 1016.27 1016.03
1018.15 1018.44 1018.72 1019.02 1019.30 1019.56 1019.75 1019.86 1019.88 1019.81 1019.68 1019.51 1019.35 1019.22 1019.15 1019.13 1019.17 1019.25 1019.34 1019.44 1019.55 1019.66 1019.78 1019.92 1020.08 1020.26 1020.45 1020.64 1020.79 1020.89 1020.92 1020.86 1020.74 1020.55 1020.32 1020.05 1019.78 1019.50 1019.23 1018.95 1018.67 1018.39 1018.10 1017.81 1017.51 1017.21 1016.94 1016.68 1016.46
1018.39 1018.67 1018.99 1019.32 1019.66 1019.95 1020.15 1020.24 1020.20 1020.06 1019.84 1019.59 1019.37 1019.21 1019.14 1019.15 1019.25 1019.40 1019.57 1019.74 1019.90 1020.04 1020.17 1020.30 1020.44 1020.59 1020.75 1020.90 1021.02 1021.10 1021.13 1021.08 1020.97 1020.81 1020.60 1020.37 1020.13 1019.89 1019.64 1019.39 1019.12 1018.84 1018.55 1018.25 1017.95 1017.65 1017.39 1017.16 1016.96
1018.60 1018.88 1019.22 1019.60 1019.97 1020.28 1020.48 1020.54 1020.45 1020.23 1019.93 1019.62 1019.36 1019.18 1019.12 1019.18 1019.34 1019.57 1019.82 1020.06 1020.26 1020.43 1020.56 1020.67 1020.78 1020.89 1021.01 1021.12 1021.21 1021.28 1021.29 1021.26 1021.16 1021.03 1020.86 1020.68 1020.48 1020.27 1020.06 1019.83 1019.58 1019.31 1019.02 1018.71 1018.41 1018.13 1017.88 1017.68 1017.52
1018.82 1019.10 1019.46 1019.86 1020.25 1020.56 1020.73 1020.75 1020.59 1020.31 1019.95 1019.59 1019.29 1019.12 1019.09 1019.20 1019.43 1019.72 1020.04 1020.34 1020.58 1020.77 1020.90 1020.99 1021.07 1021.14 1021.22 1021.29 1021.36 1021.41 1021.43 1021.40 1021.34 1021.24 1021.12 1020.98 1020.82 1020.66 1020.48 1020.28 1020.05 1019.78 1019.50 1019.20 1018.90 1018.63 1018.41 1018.24 1018.11
1019.07 1019.35 1019.71 1020.12 1020.49 1020.77 1020.90 1020.85 1020.63 1020.27 1019.86 1019.46 1019.16 1018.99 1019.00 1019.17 1019.46 1019.83 1020.21 1020.55 1020.83 1021.03 1021.16 1021.24 1021.28 1021.33 1021.37 1021.43 1021.48 1021.53 1021.56 1021.55 1021.52 1021.46 1021.38 1021.29 1021.18 1021.06 1020.91 1020.73 1020.52 1020.27 1019.99 1019.70 1019.42 1019.17 1018.97 1018.82 1018.73
1019.34 1019.62 1019.97 1020.35 1020.69 1020.91 1020.97 1020.84 1020.54 1020.11 1019.65 1019.23 1018.93 1018.79 1018.85 1019.08 1019.44 1019.87 1020.30 1020.68 1020.99 1021.20 1021.33 1021.39 1021.42 1021.45 1021.48 1021.53 1021.59 1021.64 1021.69 1021.71 1021.72 1021.70 1021.66 1021.61 1021.55 1021.46 1021.34 1021.19 1020.99 1020.76 1020.49 1020.22 1019.96 1019.73 1019.56 1019.44 1019.37
1019.61 1019.88 1020.21 1020.55 1020.82 1020.96 1020.92 1020.69 1020.31 1019.82 1019.32 1018.90 1018.62 1018.53 1018.64 1018.93 1019.36 1019.84 1020.32 1020.74 1021.07 1021.29 1021.42 1021.48 1021.51 1021.53 1021.57 1021.62 1021.69 1021.77 1021.84 1021.90 1021.94 1021.96 1021.96 1021.95 1021.91 1021.86 1021.77 1021.64 1021.47 1021.26 1021.02 1020.77 1020.53 1020.32 1020.17 1020.07 1020.02
1019.84 1020.10 1020.39 1020.67 1020.85 1020.89 1020.75 1020.42 1019.96 1019.42 1018.91 1018.49 1018.25 1018.22 1018.40 1018.76 1019.25 1019.79 1020.31 1020.76 1021.11 1021.34 1021.47 1021.54 1021.57 1021.60 1021.65 1021.72 1021.81 1021.92 1022.02 1022.11 1022.18 1022.23 1022.27 1022.28 1022.28 1022.25 1022.19 1022.10 1021.95 1021.77 1021.56 1021.34 1021.13 1020.95 1020.81 1020.72 1020.67
1019.98 1020.23 1020.49 1020.69 1020.78 1020.71 1020.46 1020.05 1019.52 1018.95 1018.44 1018.06 1017.87 1017.91 1018.17 1018.61 1019.16 1019.75 1020.31 1020.78 1021.14 1021.38 1021.52 1021.60 1021.64 1021.69 1021.76 1021.85 1021.97 1022.10 1022.23 1022.34 1022.44 1022.51 1022.57 1022.61 1022.63 1022.63 1022.61 1022.54 1022.44 1022.31 1022.14 1021.95 1021.77 1021.61 1021.48 1021.39 1021.33
1019.99 1020.24 1020.46 1020.59 1020.59 1020.43 1020.09 1019.61 1019.04 1018.46 1017.97 1017.65 1017.54 1017.66 1018.00 1018.51 1019.12 1019.75 1020.33 1020.82 1021.19 1021.44 1021.59 1021.68 1021.75 1021.82 1021.91 1022.03 1022.17 1022.32 1022.46 1022.59 1022.70 1022.79 1022.87 1022.93 1022.97 1023.00 1023.02 1023.00 1022.95 1022.86 1022.74 1022.60 1022.45 1022.31 1022.19 1022.08 1022.00
1019.87 1020.12 1020.30 1020.38 1020.31 1020.06 1019.66 1019.14 1018.55 1018.00 1017.56 1017.31 1017.28 1017.49 1017.90 1018.47 1019.13 1019.79 1020.39 1020.89 1021.26 1021.52 1021.69 1021.79 1021.88 1021.98 1022.10 1022.24 1022.40 1022.57 1022.73 1022.87 1022.99 1023.08 1023.17 1023.24 1023.31 1023.38 1023.44 1023.47 1023.48 1023.45 1023.39 1023.30 1023.18 1023.06 1022.93 1022.81 1022.70
1019.62 1019.87 1020.03 1020.06 1019.93 1019.64 1019.20 1018.67 1018.10 1017.60 1017.23 1017.06 1017.12 1017.40 1017.88 1018.50 1019.18 1019.85 1020.45 1020.95 1021.33 1021.59 1021.78 1021.91 1022.03 1022.16 1022.31 1022.49 1022.67 1022.86 1023.03 1023.17 1023.29 1023.40 1023.49 1023.58 1023.67 1023.78 1023.88 1023.97 1024.03 1024.07 1024.07 1024.02 1023.94 1023.83 1023.70 1023.56 1023.41
1019.29 1019.53 1019.67 1019.66 1019.50 1019.18 1018.73 1018.21 1017.69 1017.26 1016.97 1016.88 1017.02 1017.37 1017.89 1018.53 1019.21 1019.88 1020.47 1020.95 1021.33 1021.61 1021.82 1021.99 1022.16 1022.34 1022.53 1022.75 1022.96 1023.17 1023.36 1023.51 1023.64 1023.74 1023.85 1023.95 1024.07 1024.20 1024.35 1024.49 1024.61 1024.70 1024.75 1024.75 1024.70 1024.61 1024.47 1024.32 1024.14
Thickness
5784 5787 5788 5781 5772 5763 5754 5757 5764 5763 5764 5770 5773 5771 5765 5759 5756 5747 5760 5770 5770 5769 5768 5765 5764 5764 5763 5763 5762 5761 5760 5759 5758 5758 5757 5756 5756 5755 5755 5754 5754 5753 5753 5753 5753 5753 5754 5754 5754
5784 5785 5781 5775 5762 5750 5747 5756 5757 5760 5764 5770 5770 5769 5763 5757 5761 5760 5762 5766 5768 5767 5766 5763 5761 5761 5760 5760 5759 5758 5758 5757 5756 5755 5754 5754 5753 5752 5752 5752 5751 5750 5750 5750 5751 5751 5751 5751 5751
5782 5781 5773 5766 5756 5750 5746 5754 5757 5761 5766 5767 5763 5764 5759 5752 5759 5760 5762 5765 5766 5765 5763 5760 5759 5758 5758 5757 5756 5756 5755 5754 5753 5752 5752 5751 5750 5750 5749 5749 5748 5748 5747 5748 5748 5748 5749 5749 5749
5778 5773 5769 5759 5746 5749 5752 5755 5759 5759 5761 5764 5763 5755 5755 5756 5759 5761 5763 5764 5764 5762 5761 5757 5756 5756 5755 5754 5754 5753 5752 5752 5751 5750 5750 5749 5748 5747 5747 5746 5746 5745 5745 5745 5745 5746 5746 5747 5747
5774 5766 5755 5746 5743 5748 5754 5757 5760 5757 5755 5759 5760 5749 5746 5753 5759 5760 5760 5761 5761 5760 5758 5755 5753 5753 5752 5752 5751 5750 5750 5749 5748 5748 5747 5746 5746 5745 5744 5744 5743 5743 5743 5743 5743 5743 5744 5744 5744
5763 5761 5746 5738 5738 5745 5751 5757 5758 5755 5754 5755 5755 5747 5741 5751 5754 5754 5757 5757 5758 5757 5755 5753 5750 5749 5749 5749 5749 5747 5747 5747 5746 5745 5745 5744 5743 5742 5742 5741 5741 5741 5741 5741 5741 5741 5741 5741 5741
5756 5751 5742 5739 5736 5739 5746 5755 5754 5751 5750 5752 5755 5744 5741 5746 5749 5752 5754 5755 5754 5754 5753 5752 5751 5749 5747 5746 5745 5745 5744 5744 5744 5743 5742 5742 5741 5740 5740 5739 5739 5739 5739 5739 5739 5739 5739 5739 5739
5758 5750 5738 5737 5734 5734 5745 5751 5752 5750 5746 5754 5755 5743 5737 5743 5748 5750 5751 5751 5751 5751 5750 5750 5749 5749 5748 5746 5743 5742 5742 5741 5741 5741 5740 5740 5740 5739 5738 5738 5737 5737 5737 5736 5736 5736 5736 5736 5736
5755 5742 5732 5732 5732 5734 5743 5744 5746 5752 5748 5747 5750 5749 5745 5745 5746 5745 5744 5746 5746 5747 5748 5749 5748 5747 5746 5745 5742 5742 5740 5739 5740 5740 5739 5740 5742 5742 5740 5736 5735 5735 5735 5734 5734 5734 5734 5735 5735
5747 5733 5729 5735 5739 5737 5739 5740 5741 5742 5738 5736 5738 5740 5742 5741 5741 5740 5739 5740 5741 5743 5745 5747 5746 5746 5745 5743 5742 5742 5741 5740 5741 5741 5740 5741 5741 5740 5738 5734 5734 5733 5733 5733 5732 5733 5734 5735 5737
5740 5729 5729 5734 5739 5739 5736 5736 5740 5737 5731 5734 5733 5733 5735 5736 5736 5737 5738 5739 5740 5742 5742 5744 5745 5743 5743 5742 5741 5741 5740 5739 5740 5740 5739 5739 5739 5739 5738 5737 5735 5734 5734 5735 5733 5735 5735 5736 5735
5733 5730 5732 5732 5735 5735 5733 5733 5732 5733 5733 5739 5739 5736 5733 5732 5733 5735 5736 5737 5739 5739 5739 5741 5742 5742 5742 5741 5740 5740 5739 5739 5738 5737 5738 5738 5738 5738 5737 5736 5734 5734 5734 5733 5733 5733 5734 5734 5734
5728 5726 5729 5731 5732 5732 5731 5728 5727 5726 5732 5736 5734 5731 5730 5731 5732 5734 5736 5737 5737 5736 5737 5738 5738 5740 5740 5738 5737 5737 5736 5737 5736 5734 5736 5736 5736 5736 5736 5735 5732 5733 5732 5732 5732 5732 5732 5732 5732
5726 5726 5726 5727 5727 5728 5725 5723 5723 5720 5728 5728 5727 5727 5729 5729 5731 5732 5733 5734 5735 5735 5735 5735 5736 5736 5737 5737 5736 5735 5734 5732 5734 5732 5733 5734 5734 5734 5733 5733 5731 5731 5731 5730 5731 5731 5729 5729 5728
5728 5721 5718 5721 5723 5724 5723 5713 5715 5720 5724 5722 5723 5725 5725 5727 5729 5730 5732 5732 5734 5734 5734 5733 5733 5734 5734 5733 5732 5731 5731 5732 5731 5730 5732 5732 5731 5732 5732 5731 5731 5730 5729 5729 5728 5728 5728 5726 5725
5722 5715 5707 5713 5718 5720 5716 5701 5713 5720 5720 5718 5720 5722 5722 5724 5727 5730 5731 5732 5732 5732 5732 5730 5730 5730 5730 5730 5729 5729 5729 5728 5728 5728 5728 5729 5729 5729 5728 5729 5729 5728 5727 5727 5726 5726 5725 5724 5723
5711 5706 5703 5707 5716 5717 5714 5704 5712 5718 5717 5715 5718 5720 5721 5722 5725 5728 5730 5730 5730 5730 5730 5728 5728 5727 5726 5726 5725 5726 5726 5725 5725 5725 5725 5726 5726 5727 5727 5725 5726 5726 5725 5725 5725 5724 5723 5721 5719
5703 5705 5703 5703 5711 5713 5709 5708 5713 5716 5716 5716 5719 5721 5721 5722 5724 5727 5728 5728 5728 5729 5728 5727 5725 5725 5724 5723 5724 5722 5723 5723 5722 5721 5721 5722 5723 5723 5724 5723 5723 5723 5723 5722 5722 5720 5719 5718 5717
5712 5706 5702 5704 5711 5710 5707 5708 5712 5716 5715 5716 5719 5721 5722 5722 5725 5727 5726 5726 5726 5726 5725 5724 5723 5723 5722 5722 5721 5720 5719 5720 5719 5718 5718 5718 5720 5720 5720 5721 5720 5719 5719 5718 5719 5718 5716 5716 5716
5709 5704 5701 5703 5709 5709 5706 5707 5715 5717 5717 5720 5721 5722 5722 5723 5723 5723 5723 5724 5725 5724 5723 5722 5722 5721 5720 5719 5720 5718 5717 5717 5716 5715 5715 5715 5716 5717 5718 5718 5718 5716 5715 5715 5715 5714 5714 5713 5713
5706 5705 5702 5700 5703 5707 5703 5702 5710 5716 5719 5721 5723 5725 5725 5723 5723 5722 5722 5722 5722 5721 5721 5721 5720 5719 5718 5717 5717 5715 5714 5714 5714 5713 5712 5712 5712 5713 5714 5714 5715 5714 5714 5712 5711 5711 5710 5709 5711
5699 5709 5706 5702 5698 5696 5700 5692 5706 5714 5714 5717 5721 5723 5724 5724 5724 5723 5722 5721 5721 5721 5720 5720 5719 5719 5717 5716 5716 5715 5712 5711 5711 5711 5710 5710 5709 5710 5710 5710 5711 5711 5711 5710 5710 5709 5708 5706 5706
5705 5709 5707 5703 5700 5698 5701 5697 5705 5713 5711 5717 5722 5724 5726 5726 5726 5724 5723 5722 5722 5721 5719 5719 5718 5717 5716 5715 5713 5712 5712 5711 5710 5709 5708 5709 5707 5707 5707 5707 5708 5708 5707 5706 5705 5705 5705 5705 5703
5707 5705 5702 5702 5701 5689 5699 5697 5700 5713 5716 5721 5725 5727 5727 5728 5727 5725 5724 5723 5721 5720 5717 5716 5715 5714 5713 5713 5713 5712 5710 5708 5707 5706 5706 5706 5706 5705 5704 5704 5705 5704 5704 5703 5702 5702 5701 5701 5699
5705 5696 5686 5684 5685 5690 5702 5698 5706 5722 5726 5726 5726 5728 5729 5729 5727 5725 5722 5719 5718 5716 5715 5714 5713 5712 5712 5712 5712 5711 5709 5707 5706 5705 5704 5704 5703 5702 5702 5702 5702 5701 5700 5699 5699 5699 5698 5697 5696
5704 5702 5689 5681 5683 5692 5698 5698 5715 5726 5728 5730 5730 5730 5729 5728 5727 5724 5723 5720 5718 5716 5714 5713 5712 5710 5710 5710 5710 5710 5708 5706 5705 5703 5703 5702 5701 5700 5699 5698 5698 5697 5696 5696 5695 5696 5695 5694 5693
5701 5702 5709 5700 5695 5690 5699 5707 5717 5723 5724 5726 5727 5727 5725 5726 5725 5724 5722 5720 5718 5716 5714 5714 5712 5709 5708 5708 5707 5707 5706 5703 5702 5701 5700 5699 5698 5696 5695 5695 5695 5693 5692 5692 5692 5691 5691 5690 5690
5711 5709 5701 5695 5684 5683 5694 5701 5707 5714 5718 5722 5724 5725 5725 5725 5725 5723 5721 5720 5718 5716 5714 5713 5711 5709 5707 5707 5705 5703 5702 5700 5699 5698 5697 5696 5695 5693 5692 5692 5691 5690 5689 5688 5687 5687 5686 5686 5685
5702 5701 5701 5700 5698 5688 5686 5701 5723 5722 5723 5722 5725 5727 5726 5725 5724 5722 5720 5719 5718 5716 5713 5710 5709 5707 5706 5705 5703 5701 5699 5697 5696 5695 5693 5692 5691 5690 5689 5688 5687 5687 5686 5685 5684 5684 5682 5682 5682
5712 5709 5705 5693 5693 5696 5693 5703 5727 5727 5727 5726 5725 5726 5727 5726 5724 5722 5719 5717 5715 5713 5711 5709 5707 5706 5704 5702 5701 5699 5696 5694 5693 5691 5690 5689 5688 5687 5686 5685 5684 5683 5682 5681 5681 5679 5678 5678 5677